Location: Ermita
(21.6210°N, 77.8633°W)
Time: 05:54:39
(UTC+00:00)

Daily predictions for brighter satellites

Satellite Brightness Start Highest point End
(mag) Time Altitude Azimuth Time Altitude Azimuth Time Altitude Azimuth
Cosmos 1340 3.7 00:05:53 10° SSW 00:09:32 52° W 00:13:12 10° N
Cosmos 1151 Rocket 4.3 00:07:47 10° NNE 00:11:07 22° E 00:14:26 10° SE
CZ-2C R/B 3.4 00:09:49 10° NE 00:14:15 28° E 00:18:43 10° SSE
MOS 1 Rocket 3.7 00:09:17 10° NNE 00:14:35 57° E 00:19:41 10° S
Cosmos 1606 3.4 00:11:28 10° NNE 00:14:58 33° E 00:18:25 10° SSE
USA 267 3.4 00:09:40 10° NE 00:16:13 86° NW 00:22:47 10° SW
Okean 3 Rocket 4.1 00:12:12 10° SSW 00:16:31 64° W 00:20:52 10° N
CSL-04 Debris 4.2 00:11:54 10° SSE 00:17:21 71° ENE 00:22:47 10° N
Okean-O 4.1 00:14:54 10° S 00:19:03 41° W 00:23:13 10° NNW
Cosmos 1408 Rocket 3.7 00:14:43 10° S 00:19:05 57° E 00:23:27 10° NNE
Cosmos 1331 Rocket 4.0 00:15:16 10° N 00:20:26 64° ENE 00:25:33 10° SSE
Cosmos 1656 Rocket 3.6 00:17:12 10° NNW 00:22:45 81° ENE 00:28:20 10° SSE
USA 186 3.4 00:23:06 11° E 00:23:20 11° ENE 00:23:58 10° ENE
H-2A ROCKET BODY 2.9 00:21:06 10° W 00:24:00 35° SSW 00:32:23 10° SE
H-2A R/B 2.3 00:18:55 10° SSE 00:24:01 49° ENE 00:28:57 10° N
SJ-11-01 4.3 00:23:32 10° SSE 00:28:11 66° ENE 00:32:52 10° N
Cosmos 1833 Rocket 3.7 00:26:07 10° SSE 00:30:29 24° ESE 00:34:50 10° NE
Cosmos 1346 Rocket 3.6 00:27:09 10° SSW 00:31:00 54° W 00:34:52 10° N
FREGAT/IRIS 4.3 00:33:48 14° ENE 00:33:48 14° ENE 00:35:09 10° NE
Cosmos 1633 2.4 00:31:17 10° S 00:34:47 67° E 00:38:17 10° NNE
Cosmos 2366 rocket 4.0 00:30:47 10° S 00:36:57 61° E 00:43:05 10° NNE
Iridium 2 3.6 00:36:34 10° N 00:40:15 61° E 00:43:57 10° S
Cosmos 1500 Rocket 3.8 00:37:56 10° SSE 00:42:03 46° E 00:46:10 10° NNE
DMSP B5D2-2 4.1 00:37:53 10° NNE 00:43:01 57° ESE 00:48:09 10° S
Fermi 4.5 00:43:29 10° W 00:47:24 42° SSW 00:49:37 22° SE
ISS -3.7 00:45:11 10° NNW 00:48:31 65° NE 00:49:59 30° ESE
Cosmos 1862 4.4 00:47:48 23° ESE 00:48:35 25° E 00:51:56 10° NE
GPS 2-17 Rocket1 2.9 00:44:13 10° W 00:48:38 72° S 00:51:11 24° E
SL-8 Rocket 4.1 00:43:38 10° S 00:49:46 77° W 00:55:57 10° N
Cosmos 2251 Rocket 3.9 00:45:52 10° SSW 00:51:03 67° WNW 00:56:16 10° N
FALCON 9 DEB 3.1 00:48:26 10° SW 00:51:55 86° NW 00:55:24 10° NE
SJ-6B 3.6 00:50:21 25° ESE 00:52:03 35° ENE 00:55:46 10° N
CZ-4 R/B 4.2 00:52:01 10° SW 00:54:17 15° W 00:56:35 10° WNW
IRS-1A Rocket 4.4 00:51:33 16° SSE 00:55:57 55° ENE 01:01:27 10° N
Meteor 1-26 Rocket 4.1 00:53:17 10° N 00:58:42 62° E 01:02:50 17° SSE
Centaur D AC-25 3.4 00:56:59 10° SW 01:01:02 45° SE 01:12:13 10° ENE
SL-08 R/B 4.5 00:55:42 10° S 01:01:53 62° E 01:08:00 10° NNE
CZ-3B R/B 4.0 00:57:49 10° W 01:01:54 84° SSW 01:08:57 23° ESE
COSMOS 2406 3.2 00:58:19 10° SSW 01:04:04 87° ESE 01:09:51 10° NNE
Cosmos 1805 Rocket 4.0 01:04:15 35° ESE 01:05:00 38° E 01:09:05 10° NNE
Cosmos 1328 Rocket 3.8 01:00:53 10° N 01:05:16 71° W 01:09:36 10° S
SL-08 RB Rocket 3.6 01:04:29 21° SSE 01:07:30 79° ENE 01:12:07 10° N
Yuri Rocket 3.6 01:07:59 10° SW 01:11:34 35° SSE 01:11:34 35° SSE
BREEZE-M DEB (TANK) 3.5 01:10:38 10° NNW 01:14:18 23° NNE 01:14:29 23° NE
Cosmos 614 Rocket 3.8 01:11:29 10° S 01:16:34 81° ESE 01:21:44 10° NNE
IRIDIUM 103 4.4 01:16:06 38° SE 01:17:43 52° E 01:22:45 10° NNE
Sakura Rocket 3.5 01:13:24 10° WNW 01:19:40 69° NNE 01:21:09 44° E
Cosmos 2082 Rocket 2.5 01:21:40 42° ESE 01:21:41 42° ESE 01:27:00 10° NE
ATLAS 2A CENTAUR R/B 4.5 00:33:41 10° SW 01:23:27 46° SSE 01:29:12 32° ESE
Gbstr 26 Del rocket 3.7 01:20:08 10° NNW 01:23:09 33° NNE 01:23:09 33° NNE
FUSE 4.0 01:23:48 10° W 01:29:12 74° N 01:30:58 43° ENE
Meteor 2-6 Rocket 4.4 01:24:38 10° N 01:29:59 47° E 01:30:13 47° E
Cosmos 2228 Rocket 3.4 01:27:47 10° N 01:31:27 51° NE 01:31:27 51° NE
Cosmos 1782 2.9 01:28:30 10° N 01:32:31 74° W 01:32:49 69° SW
Resurs 01 Rocket 3.0 01:34:15 25° NE 01:34:15 25° NE 01:36:39 10° NNE
IRIDIUM 106 4.2 01:34:26 47° S 01:35:59 85° E 01:41:12 10° N
Cosmos 1515 Rocket 4.4 01:34:20 10° NNW 01:38:37 48° W 01:40:22 31° SSW
Skynet4D Del rocket 4.0 01:37:38 10° W 01:43:01 61° N 01:44:50 41° NE
Ariane Rocket 4.4 01:45:34 18° SSW 01:48:43 35° W 01:53:18 10° NW
Meteor 1-10 Rocket 4.3 01:45:59 10° N 01:51:07 60° NE 01:51:07 60° NE
Cosmos 1190 Rocket 4.0 01:51:26 65° SW 01:52:10 79° WNW 01:57:26 10° N
Cosmos 407 Rocket 4.1 01:50:40 10° SSW 01:55:53 55° WNW 02:01:06 10° N
Cosmos 1727 Rocket 4.3 01:56:38 10° NNW 02:02:53 64° W 02:04:41 45° SSW
Cosmos 1992 Rocket 4.4 02:00:56 10° NNW 02:05:42 60° W 02:05:42 60° W
Cosmos 1934 Rocket 4.0 02:07:19 69° NNE 02:07:19 69° NNE 02:12:55 10° N
Delta 202 4.3 02:01:20 10° W 02:05:37 46° WSW 02:05:37 46° WSW
Cosmos 1833 Rocket 4.5 02:09:22 10° SW 02:14:07 28° WNW 02:18:55 10° N
ATLAS 5 CENTAUR R/B 3.3 02:15:37 10° NNW 02:20:16 43° NNE 02:20:16 43° NNE
Cosmos 1697 Rocket 4.5 02:21:43 10° N 02:23:56 22° NNE 02:23:56 22° NNE
Aureole 1 Rocket 4.4 02:28:47 57° WNW 02:28:49 57° WNW 02:35:54 10° N
USA 238 DEB 4.2 02:36:17 46° W 02:37:32 52° WNW 02:44:02 10° NNE
USA 238 4.2 02:36:50 49° W 02:37:39 52° WNW 02:44:08 10° NNE
ATLAS CENTAUR R/B 3.4 08:18:12 27° NE 08:18:12 27° NE 08:20:15 10° NE
Aurora 2 Rocket 4.4 08:19:57 63° WSW 08:22:05 89° NNW 08:33:15 10° ENE
ARIANE 5 R/B 4.2 08:21:46 10° N 08:24:01 24° NNW 08:24:01 24° NNW
ATLAS 3B CENTAUR R/B 3.5 08:20:18 28° WNW 08:26:39 57° N 08:32:20 10° ENE
Meteor 1-16 Rocket 4.4 08:32:19 61° N 08:32:19 61° N 08:36:44 10° N
MSX 3.7 08:26:34 10° NNE 08:32:19 86° E 08:32:19 86° E
Cosmos 2228 4.2 08:33:07 40° E 08:33:07 40° E 08:37:02 10° NNE
IDEFIX/ARIANE 42P 3.5 08:32:56 10° N 08:36:22 38° NNW 08:36:22 38° NNW
Meteor 2-14 Rocket 4.3 08:34:06 10° N 08:40:09 83° E 08:41:59 48° SSE
CZ-2C R/B 3.4 08:36:26 10° NNE 08:40:45 39° E 08:42:00 33° SE
Cosmos 1125 Rocket 3.4 08:44:24 84° SE 08:44:29 85° ESE 08:49:43 10° NNE
Nadezhda 2 Rocket 4.4 08:39:03 10° N 08:45:13 80° E 08:48:25 30° S
SL-16 R/B 4.3 08:43:06 10° NW 08:43:47 13° NW 08:43:47 13° NW
Cosmos 1809 Rocket 4.4 08:45:16 10° NNW 08:51:14 58° W 08:51:18 58° W
H-2A R/B 2.7 08:50:02 33° SE 08:51:34 52° ENE 08:55:34 10° N
Cosmos 2263 Rocket 3.8 08:54:47 20° NW 08:54:47 20° NW 08:57:36 10° NNW
Aureole 3 3.9 08:54:23 59° SSE 08:55:13 77° E 09:00:44 10° N
Atlas Centaur 2 2.9 08:53:57 47° W 08:56:19 77° NNW 09:04:40 10° ENE
Delta 7925 Rocket 4.1 08:56:28 49° SW 08:58:21 69° SSE 09:04:15 10° ENE
GPS 2-15 Rocket1 3.5 09:00:46 50° S 09:00:46 50° S 09:05:10 10° ESE
ATLAS 2A CENTAUR R/B 1.7 09:03:54 68° E 09:03:54 68° E 09:05:58 10° ESE
IUS-13 SRM-1 3.6 09:08:46 22° NE 09:08:46 22° NE 09:09:35 10° ENE
Cosmos 1825 Rocket 4.3 09:05:36 10° N 09:09:47 50° E 09:13:57 10° SSE
NOSS 2-2 (C) 3.4 09:10:46 52° SSE 09:11:23 62° ESE 09:14:53 10° NE
BREEZE-M DEB (TANK) 4.4 09:13:49 28° S 09:13:49 28° S 09:17:37 10° SSE
Meteor 2-15 4.3 09:11:52 17° S 09:16:42 90° WSW 09:22:46 10° N
Cosmos 1844 Rocket 2.6 09:16:25 30° SSW 09:19:18 83° WNW 09:24:53 10° NNE
Hubble Space Telescope 0.7 09:19:35 55° SW 09:20:23 77° SSE 09:24:30 10° ENE
SeaSat 1 3.7 09:19:38 10° N 09:23:26 23° WNW 09:23:49 23° WNW
Cosmos 1606 Rocket 4.0 09:23:59 38° W 09:24:18 39° W 09:28:28 10° NNW
ERS-2 2.0 09:25:11 38° SSW 09:26:21 61° WSW 09:29:56 10° NNW
CZ-4B R/B 3.4 09:23:56 10° SE 09:26:55 30° ENE 09:29:51 10° NNE
Cosmos 1603 3.6 09:22:29 10° NNW 09:28:11 80° WSW 09:33:49 10° SSE
H-2A R/B (2) 2.6 09:26:59 18° NW 09:28:39 33° NNE 09:32:30 10° E
PAYLOAD A 4.4 09:24:22 10° N 09:29:19 43° WNW 09:31:20 29° WSW
GPS 2-18 Rocket1 2.8 09:28:34 49° WSW 09:29:26 76° S 09:33:05 10° E
ARIANE 5 R/B 4.2 09:27:31 19° SSW 09:31:56 32° SSE 10:07:18 10° ESE
OAO 2 Rocket 4.2 09:34:10 22° W 09:37:05 40° NNW 09:41:58 10° NE
Cosmos 1726 Rocket 4.4 09:40:34 26° WSW 09:41:47 30° W 09:45:44 10° NNW
Cosmos 1048 Rocket 4.2 09:36:48 10° N 09:41:57 73° ENE 09:47:09 10° SSE
CZ-4B R/B 3.5 09:48:11 10° N 09:51:49 83° WNW 09:55:29 10° SSW
Landsat 5 4.5 09:51:42 21° WSW 09:52:08 21° W 09:55:07 10° NW
Meteosat 1 Rocket2 3.1 09:49:25 19° WSW 09:53:00 79° SSE 09:56:56 10° ENE
SL-08 ROCKET BODY 4.5 09:47:38 10° NNW 09:53:28 55° W 09:59:12 10° SSW
Delta 142 3.8 09:49:46 10° WNW 09:53:49 65° NNE 09:58:32 10° E
Cosmos 1943 3.3 09:48:29 10° NNW 09:53:56 53° WSW 09:59:22 10° S
Cosmos 1689 Rocket 4.4 09:53:22 10° SE 09:55:55 27° ENE 09:58:26 10° NNE
Cosmos 1386 Rocket 4.4 09:50:33 10° NNW 09:56:26 60° W 10:02:20 10° S
ATLAS 2A CENTAUR R/B 1.5 09:57:41 17° W 09:59:39 58° SSW 10:07:18 10° ESE
SL-4 R/B 1.4 09:58:24 10° NW 10:01:47 70° SW 10:05:18 10° SSE
SAR-Lupe-4 3.5 09:59:56 10° S 10:03:25 59° WSW 10:06:57 10° NNW
Cosmos 1812 Rocket 3.9 10:04:21 10° S 10:08:37 67° E 10:12:55 10° NNE
Cosmos 1745 Rocket 4.4 10:04:18 10° NNW 10:10:04 41° W 10:15:47 10° SSW
Cosmos 2058 Rocket 4.3 10:06:50 10° SW 10:10:20 23° W 10:13:55 10° NNW
CZ-3B R/B 4.5 10:02:38 10° W 10:15:42 28° SW 10:21:00 10° S
CZ-2C R/B 4.2 10:16:51 10° NW 10:18:36 12° WNW 10:20:21 10° W
Meteor PRIRODA 3.6 10:15:41 10° N 10:19:24 75° WNW 10:23:06 10° SSW
CZ-4B R/B 3.2 10:16:47 10° N 10:21:11 58° WNW 10:25:26 10° SSW
USA 267 3.3 10:15:26 10° SE 10:21:58 85° SW 10:28:31 10° NW
Cosmos 1455 2.2 10:19:12 10° S 10:23:01 88° WNW 10:26:52 10° N
H-2A R/B 2.6 10:21:31 10° NNE 10:25:19 69° ESE 10:29:07 10° S
Meteor 2-10 Rocket 3.5 10:20:27 10° S 10:25:28 79° W 10:30:39 10° N
ALOS 3.0 10:21:31 10° N 10:25:43 34° WNW 10:29:54 10° SW
FENGYUN 3A 4.2 10:20:59 10° N 10:25:56 39° WNW 10:30:53 10° SW
